| time (UTC) | temp C | wind direction | speed KPH | gust KPH | rain 1hr cm | rain 24hr cm | rain mn cm | humidity % | barometer mb |
| 20260903110537 | 31 | 105 | 4.8 | 12.9 | 0.00 | 0.00 | 0.00 | 41 | 1019.0 |
| 20260903105534 | 31 | 355 | 4.8 | 14.5 | 0.00 | 0.00 | 0.00 | 40 | 1019.1 |
| 20260903104531 | 31 | 14 | 3.2 | 12.9 | 0.00 | 0.00 | 0.00 | 41 | 1019.2 |
| 20260903103529 | 31 | 107 | 1.6 | 6.4 | 0.00 | 0.00 | 0.00 | 42 | 1019.3 |
| 20260903102526 | 30 | 112 | 3.2 | 6.4 | 0.00 | 0.00 | 0.00 | 43 | 1019.4 |
| 20260903101524 | 30 | 130 | 4.8 | 9.7 | 0.00 | 0.00 | 0.00 | 43 | 1019.6 |
| 20260903100521 | 30 | 110 | 6.4 | 11.3 | 0.00 | 0.00 | 0.00 | 43 | 1019.5 |
| 20260903095518 | 30 | 69 | 3.2 | 9.7 | 0.00 | 0.00 | 0.00 | 40 | 1019.5 |
| 20260903094516 | 30 | 353 | 3.2 | 9.7 | 0.00 | 0.00 | 0.00 | 42 | 1019.6 |
| 20260903093613 | 29 | 116 | 4.8 | 9.7 | 0.00 | 0.00 | 0.00 | 44 | 1019.7 |
| 20260903092611 | 30 | 97 | 3.2 | 9.7 | 0.00 | 0.00 | 0.00 | 44 | 1019.7 |
| 20260903091608 | 29 | 113 | 1.6 | 6.4 | 0.00 | 0.00 | 0.00 | 46 | 1019.6 |
| 20260903090606 | 29 | 14 | 1.6 | 6.4 | 0.00 | 0.00 | 0.00 | 47 | 1019.5 |
| 20260903085603 | 28 | 110 | 3.2 | 9.7 | 0.00 | 0.00 | 0.00 | 47 | 1019.4 |
| 20260903084601 | 28 | 96 | 3.2 | 6.4 | 0.00 | 0.00 | 0.00 | 51 | 1019.4 |
| 20260903083558 | 28 | 45 | 3.2 | 6.4 | 0.00 | 0.00 | 0.00 | 51 | 1019.3 |
| 20260903082555 | 28 | 126 | 1.6 | 6.4 | 0.00 | 0.00 | 0.00 | 50 | 1019.1 |
| 20260903081553 | 27 | 113 | 1.6 | 6.4 | 0.00 | 0.00 | 0.00 | 52 | 1019.2 |
| 20260903080550 | 27 | 114 | 3.2 | 6.4 | 0.00 | 0.00 | 0.00 | 53 | 1019.1 |
| 20260903075548 | 27 | 130 | 0.0 | 3.2 | 0.00 | 0.00 | 0.00 | 53 | 1019.2 |
| 20260903074545 | 27 | 0.0 | 3.2 | 0.00 | 0.00 | 0.00 | 52 | 1019.1 | |
| 20260903073542 | 26 | 113 | 1.6 | 3.2 | 0.00 | 0.00 | 0.00 | 53 | 1019.1 |
| 20260903072540 | 26 | 113 | 1.6 | 3.2 | 0.00 | 0.00 | 0.00 | 54 | 1019.2 |
| 20260903071537 | 25 | 123 | 1.6 | 3.2 | 0.00 | 0.00 | 0.00 | 55 | 1019.1 |
| 20260903070535 | 25 | 99 | 1.6 | 3.2 | 0.00 | 0.00 | 0.00 | 55 | 1019.0 |
| 20260903065532 | 26 | 106 | 0.0 | 3.2 | 0.00 | 0.00 | 0.00 | 53 | 1019.0 |
| 20260903064559 | 26 | 0.0 | 0.0 | 0.00 | 0.00 | 0.00 | 54 | 1018.9 | |
| 20260903063557 | 25 | 0.0 | 3.2 | 0.00 | 0.00 | 0.00 | 55 | 1018.8 | |
| 20260903062554 | 25 | 0.0 | 0.0 | 0.00 | 0.00 | 0.00 | 57 | 1018.7 | |
| 20260903061552 | 24 | 0.0 | 0.0 | 0.00 | 0.00 | 0.00 | 58 | 1018.5 | |
| 20260903060549 | 23 | 225 | 0.0 | 3.2 | 0.00 | 0.00 | 0.00 | 60 | 1018.5 |
| 20260903055546 | 22 | 0.0 | 3.2 | 0.00 | 0.00 | 0.00 | 62 | 1018.4 | |
| 20260903054544 | 22 | 248 | 1.6 | 3.2 | 0.00 | 0.00 | 0.00 | 63 | 1018.4 |
| 20260903053541 | 22 | 234 | 1.6 | 3.2 | 0.00 | 0.00 | 0.00 | 64 | 1018.3 |
| 20260903052538 | 22 | 0.0 | 0.0 | 0.00 | 0.00 | 0.00 | 64 | 1018.2 | |
| 20260903051536 | 22 | 277 | 3.2 | 6.4 | 0.00 | 0.00 | 0.00 | 64 | 1018.1 |
| 20260903050533 | 22 | 225 | 0.0 | 3.2 | 0.00 | 0.00 | 0.00 | 65 | 1018.1 |
| 20260903045531 | 22 | 218 | 0.0 | 3.2 | 0.00 | 0.00 | 0.00 | 64 | 1018.1 |
| 20260903044528 | 22 | 0.0 | 0.0 | 0.00 | 0.00 | 0.00 | 64 | 1018.0 | |
| 20260903043526 | 22 | 0.0 | 3.2 | 0.00 | 0.00 | 0.00 | 63 | 1018.1 | |
| 20260903042523 | 22 | 225 | 3.2 | 6.4 | 0.00 | 0.00 | 0.00 | 63 | 1018.0 |
| 20260903041520 | 22 | 225 | 0.0 | 3.2 | 0.00 | 0.00 | 0.00 | 63 | 1018.0 |
| 20260903040518 | 22 | 254 | 3.2 | 6.4 | 0.00 | 0.00 | 0.00 | 63 | 1018.1 |
| 20260903035515 | 22 | 225 | 0.0 | 3.2 | 0.00 | 0.00 | 0.00 | 64 | 1018.2 |
| 20260903034613 | 22 | 0.0 | 0.0 | 0.00 | 0.00 | 0.00 | 65 | 1018.3 | |
| 20260903033610 | 22 | 0.0 | 0.0 | 0.00 | 0.00 | 0.00 | 64 | 1018.3 | |
| 20260903032608 | 22 | 0.0 | 0.0 | 0.00 | 0.00 | 0.00 | 64 | 1018.4 | |
| 20260903031605 | 22 | 242 | 1.6 | 3.2 | 0.00 | 0.00 | 0.00 | 63 | 1018.3 |
| 20260903030602 | 23 | 229 | 1.6 | 3.2 | 0.00 | 0.00 | 0.00 | 62 | 1018.5 |
| 20260903025600 | 23 | 246 | 3.2 | 6.4 | 0.00 | 0.00 | 0.00 | 60 | 1018.5 |
| 20260903024557 | 23 | 243 | 3.2 | 3.2 | 0.00 | 0.00 | 0.00 | 61 | 1018.6 |
| 20260903023554 | 23 | 261 | 3.2 | 6.4 | 0.00 | 0.00 | 0.00 | 62 | 1018.4 |
| 20260903022552 | 22 | 248 | 1.6 | 3.2 | 0.00 | 0.00 | 0.00 | 64 | 1018.5 |
| 20260903021549 | 22 | 248 | 3.2 | 3.2 | 0.00 | 0.00 | 0.00 | 64 | 1018.6 |
| 20260903020547 | 22 | 229 | 1.6 | 3.2 | 0.00 | 0.00 | 0.00 | 65 | 1018.6 |
| 20260903015544 | 22 | 180 | 0.0 | 3.2 | 0.00 | 0.00 | 0.00 | 65 | 1018.5 |
| 20260903014542 | 22 | 0.0 | 0.0 | 0.00 | 0.00 | 0.00 | 63 | 1018.5 | |
| 20260903013539 | 23 | 270 | 1.6 | 3.2 | 0.00 | 0.00 | 0.00 | 61 | 1018.6 |
| 20260903012536 | 23 | 0.0 | 0.0 | 0.00 | 0.00 | 0.00 | 62 | 1018.5 | |
| 20260903011534 | 23 | 270 | 1.6 | 3.2 | 0.00 | 0.00 | 0.00 | 62 | 1018.7 |
| 20260903010531 | 23 | 248 | 1.6 | 3.2 | 0.00 | 0.00 | 0.00 | 63 | 1018.6 |
| 20260903005529 | 22 | 241 | 3.2 | 6.4 | 0.00 | 0.00 | 0.00 | 63 | 1018.8 |
| 20260903004526 | 22 | 225 | 1.6 | 3.2 | 0.00 | 0.00 | 0.00 | 63 | 1018.8 |
| 20260903003523 | 22 | 240 | 1.6 | 3.2 | 0.00 | 0.00 | 0.00 | 63 | 1018.8 |
| 20260903002521 | 22 | 245 | 3.2 | 6.4 | 0.00 | 0.00 | 0.00 | 63 | 1018.9 |
| 20260903001518 | 22 | 248 | 1.6 | 3.2 | 0.00 | 0.00 | 0.00 | 63 | 1018.9 |
| 20260903000516 | 22 | 203 | 1.6 | 3.2 | 0.00 | 0.00 | 0.00 | 63 | 1019.2 |
| 20260902235613 | 22 | 203 | 0.0 | 3.2 | 0.00 | 0.00 | 0.00 | 61 | 1019.0 |
| 20260902234611 | 23 | 181 | 1.6 | 3.2 | 0.00 | 0.00 | 0.00 | 60 | 1019.1 |
| 20260902233608 | 23 | 230 | 1.6 | 3.2 | 0.00 | 0.00 | 0.00 | 60 | 1018.9 |
| 20260902232606 | 23 | 234 | 3.2 | 6.4 | 0.00 | 0.00 | 0.00 | 61 | 1018.9 |
| 20260902231603 | 23 | 181 | 1.6 | 3.2 | 0.00 | 0.00 | 0.00 | 61 | 1018.8 |
| 20260902230600 | 23 | 244 | 1.6 | 6.4 | 0.00 | 0.00 | 0.00 | 60 | 1018.8 |
| 20260902225558 | 23 | 225 | 0.0 | 3.2 | 0.00 | 0.00 | 0.00 | 59 | 1018.8 |
| 20260902224555 | 23 | 246 | 1.6 | 3.2 | 0.00 | 0.00 | 0.00 | 60 | 1018.7 |
| 20260902223553 | 23 | 264 | 3.2 | 6.4 | 0.00 | 0.00 | 0.00 | 62 | 1018.7 |
| 20260902222550 | 23 | 225 | 1.6 | 3.2 | 0.00 | 0.00 | 0.00 | 66 | 1018.7 |
| 20260902221547 | 23 | 300 | 0.0 | 3.2 | 0.00 | 0.00 | 0.00 | 67 | 1018.9 |
| 20260902220545 | 23 | 248 | 3.2 | 6.4 | 0.00 | 0.00 | 0.00 | 70 | 1018.9 |
| 20260902215542 | 22 | 237 | 4.8 | 6.4 | 0.00 | 0.00 | 0.00 | 72 | 1018.9 |
| 20260902214540 | 23 | 249 | 4.8 | 6.4 | 0.00 | 0.00 | 0.00 | 71 | 1018.9 |
| 20260902213537 | 23 | 236 | 3.2 | 6.4 | 0.00 | 0.00 | 0.00 | 72 | 1018.8 |
| 20260902212534 | 23 | 248 | 3.2 | 3.2 | 0.00 | 0.00 | 0.00 | 72 | 1019.0 |
| 20260902211532 | 23 | 203 | 0.0 | 3.2 | 0.00 | 0.00 | 0.00 | 72 | 1018.9 |
| 20260902210529 | 23 | 203 | 0.0 | 3.2 | 0.00 | 0.00 | 0.00 | 72 | 1018.8 |
| 20260902205527 | 23 | 315 | 1.6 | 3.2 | 0.00 | 0.00 | 0.00 | 72 | 1018.7 |
| 20260902204524 | 23 | 270 | 1.6 | 3.2 | 0.00 | 0.00 | 0.00 | 72 | 1018.7 |
| 20260902203521 | 23 | 245 | 3.2 | 6.4 | 0.00 | 0.00 | 0.00 | 72 | 1018.7 |
| 20260902202519 | 24 | 207 | 1.6 | 3.2 | 0.00 | 0.00 | 0.00 | 71 | 1018.8 |
| 20260902201516 | 24 | 224 | 3.2 | 6.4 | 0.00 | 0.00 | 0.00 | 71 | 1018.8 |
| 20260902200614 | 24 | 276 | 1.6 | 3.2 | 0.00 | 0.00 | 0.00 | 71 | 1018.7 |
| 20260902195611 | 24 | 305 | 4.8 | 6.4 | 0.00 | 0.00 | 0.00 | 71 | 1018.7 |
| 20260902194608 | 24 | 311 | 6.4 | 9.7 | 0.00 | 0.00 | 0.00 | 70 | 1018.6 |
| 20260902193606 | 24 | 3 | 3.2 | 6.4 | 0.00 | 0.00 | 0.00 | 69 | 1018.4 |
| 20260902192603 | 24 | 1 | 3.2 | 6.4 | 0.00 | 0.00 | 0.00 | 69 | 1018.4 |
| 20260902191601 | 25 | 113 | 3.2 | 6.4 | 0.00 | 0.00 | 0.00 | 69 | 1018.4 |
| 20260902190558 | 25 | 101 | 3.2 | 9.7 | 0.00 | 0.00 | 0.00 | 68 | 1018.1 |
| 20260902185555 | 25 | 22 | 4.8 | 12.9 | 0.00 | 0.00 | 0.00 | 68 | 1018.0 |
| 20260902184553 | 25 | 92 | 3.2 | 11.3 | 0.00 | 0.00 | 0.00 | 68 | 1017.8 |
| 20260902183550 | 25 | 22 | 6.4 | 12.9 | 0.00 | 0.00 | 0.00 | 67 | 1017.8 |
| 20260902182548 | 25 | 37 | 6.4 | 17.7 | 0.00 | 0.00 | 0.00 | 66 | 1017.8 |
| 20260902181545 | 26 | 81 | 4.8 | 12.9 | 0.00 | 0.00 | 0.00 | 65 | 1017.6 |
| 20260902180542 | 26 | 31 | 6.4 | 14.5 | 0.00 | 0.00 | 0.00 | 64 | 1017.5 |
| 20260902175540 | 26 | 35 | 4.8 | 12.9 | 0.00 | 0.00 | 0.00 | 62 | 1017.4 |
| 20260902174537 | 26 | 60 | 6.4 | 17.7 | 0.00 | 0.00 | 0.00 | 62 | 1017.2 |
| 20260902173535 | 27 | 67 | 4.8 | 11.3 | 0.00 | 0.00 | 0.00 | 61 | 1017.3 |
| 20260902172532 | 27 | 57 | 8.0 | 17.7 | 0.00 | 0.00 | 0.00 | 60 | 1017.3 |
| 20260902171529 | 27 | 65 | 6.4 | 17.7 | 0.00 | 0.00 | 0.00 | 59 | 1017.3 |
| 20260902170527 | 27 | 30 | 6.4 | 17.7 | 0.00 | 0.00 | 0.00 | 59 | 1017.2 |
| 20260902165524 | 27 | 50 | 9.7 | 20.9 | 0.00 | 0.00 | 0.00 | 58 | 1017.3 |
| 20260902164522 | 27 | 39 | 6.4 | 14.5 | 0.00 | 0.00 | 0.00 | 56 | 1017.3 |
| 20260902163519 | 28 | 10 | 4.8 | 12.9 | 0.00 | 0.00 | 0.00 | 55 | 1017.2 |
| 20260902162517 | 28 | 39 | 11.3 | 20.9 | 0.00 | 0.00 | 0.00 | 54 | 1017.2 |
| 20260902161614 | 28 | 32 | 9.7 | 17.7 | 0.00 | 0.00 | 0.00 | 53 | 1017.1 |
| 20260902160612 | 29 | 118 | 4.8 | 14.5 | 0.00 | 0.00 | 0.00 | 50 | 1017.3 |
| 20260902155609 | 28 | 60 | 8.0 | 17.7 | 0.00 | 0.00 | 0.00 | 52 | 1017.3 |
| 20260902154606 | 28 | 81 | 6.4 | 14.5 | 0.00 | 0.00 | 0.00 | 51 | 1017.3 |
| 20260902153604 | 28 | 123 | 8.0 | 20.9 | 0.00 | 0.00 | 0.00 | 51 | 1017.3 |
| 20260902152601 | 30 | 66 | 6.4 | 17.7 | 0.00 | 0.00 | 0.00 | 48 | 1017.3 |
| 20260902151559 | 29 | 18 | 9.7 | 22.5 | 0.00 | 0.00 | 0.00 | 49 | 1017.4 |
| 20260902150556 | 29 | 44 | 6.4 | 17.7 | 0.00 | 0.00 | 0.00 | 48 | 1017.4 |
| 20260902145553 | 29 | 354 | 11.3 | 20.9 | 0.00 | 0.00 | 0.00 | 46 | 1017.3 |
| 20260902144551 | 30 | 59 | 9.7 | 20.9 | 0.00 | 0.00 | 0.00 | 45 | 1017.3 |
| 20260902143548 | 30 | 348 | 8.0 | 22.5 | 0.00 | 0.00 | 0.00 | 44 | 1017.4 |
| 20260902142546 | 30 | 59 | 8.0 | 14.5 | 0.00 | 0.00 | 0.00 | 43 | 1017.6 |
| 20260902141543 | 31 | 133 | 4.8 | 12.9 | 0.00 | 0.00 | 0.00 | 42 | 1017.6 |
| 20260902140540 | 30 | 66 | 8.0 | 14.5 | 0.00 | 0.00 | 0.00 | 42 | 1017.6 |
| 20260902135538 | 30 | 333 | 6.4 | 17.7 | 0.00 | 0.00 | 0.00 | 42 | 1017.6 |
| 20260902134535 | 30 | 45 | 6.4 | 20.9 | 0.00 | 0.00 | 0.00 | 42 | 1017.7 |
| 20260902133533 | 30 | 46 | 8.0 | 22.5 | 0.00 | 0.00 | 0.00 | 43 | 1017.7 |
| 20260902132530 | 30 | 337 | 8.0 | 20.9 | 0.00 | 0.00 | 0.00 | 43 | 1017.8 |
| 20260902131527 | 30 | 37 | 12.9 | 22.5 | 0.00 | 0.00 | 0.00 | 43 | 1017.8 |
| 20260902130525 | 30 | 2 | 8.0 | 17.7 | 0.00 | 0.00 | 0.00 | 42 | 1017.8 |
| 20260902125522 | 30 | 70 | 11.3 | 22.5 | 0.00 | 0.00 | 0.00 | 42 | 1017.9 |
| 20260902124520 | 30 | 328 | 6.4 | 20.9 | 0.00 | 0.00 | 0.00 | 40 | 1017.9 |
| 20260902123517 | 31 | 95 | 6.4 | 14.5 | 0.00 | 0.00 | 0.00 | 40 | 1017.8 |
| 20260902122515 | 31 | 131 | 4.8 | 14.5 | 0.00 | 0.00 | 0.00 | 39 | 1017.8 |
| 20260902121612 | 30 | 303 | 4.8 | 14.5 | 0.00 | 0.00 | 0.00 | 40 | 1017.8 |
| 20260902120610 | 30 | 53 | 8.0 | 20.9 | 0.00 | 0.00 | 0.00 | 40 | 1017.8 |
| 20260902115607 | 30 | 167 | 8.0 | 17.7 | 0.00 | 0.00 | 0.00 | 40 | 1018.0 |
| 20260902114604 | 30 | 78 | 6.4 | 22.5 | 0.00 | 0.00 | 0.00 | 41 | 1017.9 |
| 20260902113602 | 31 | 32 | 4.8 | 11.3 | 0.00 | 0.00 | 0.00 | 42 | 1017.9 |
| 20260902112559 | 31 | 293 | 4.8 | 12.9 | 0.00 | 0.00 | 0.00 | 42 | 1017.9 |
| 20260902111557 | 31 | 226 | 3.2 | 11.3 | 0.00 | 0.00 | 0.00 | 42 | 1017.7 |